Regional Weather Roundup
Issued by NWS Tiyan, Guam

Home | Current Version | Previous Version | Text Only | Print | Product List | Glossary On
Versions: 1 2 3 4 5 6 7 8 9 10 11 12 13 14 15 16 17 18 19 20 21 22 23 24 25 26 27
000
ASGM40 PGUM 260212
RWRGUM
WEATHER ROUNDUP FOR THE MARIANAS
NATIONAL WEATHER SERVICE TIYAN GU
1200 PM CHST SUN OCT 26 2014

GUZ001>004-260300-
MARIANA ISLANDS-

CITY           SKY/WX    TMP DP  RH WIND       PRES   REMARKS
GUAM AIRPORT   MOSUNNY   84  77  79 E10       29.89F HX  94
ANDERSEN AFB   PTSUNNY   82  77  83 E17       29.89F HX  91
ROTA AIRPORT   LGT RAIN  77  75  94 SE6       29.89F
TINIAN AP      PTSUNNY   81  75  83 E18       29.87F
SAIPAN AP      LGT RAIN  79  75  89 E14       29.88F

$$




USA.gov is the U.S. government's official web portal to all federal, state and local government web resources and services.